Time,TemperatureF,DewpointF,PressureIn,WindDirection,WindDirectionDegrees,WindSpeedMPH,WindSpeedGustMPH,Humidity,HourlyPrecipIn,Conditions,Clouds,dailyrainin,SoftwareType,DateUTC
2015-07-06 00:13:00,67.0,63.0,30.03,West,280,0.0,0.0,87,-99.99,,,-99.99,,2015-07-06 04:13:00,
2015-07-06 00:23:00,67.0,63.0,30.03,West,280,0.0,0.0,87,-99.99,,,-99.99,,2015-07-06 04:23:00,
2015-07-06 00:33:00,67.0,63.0,30.03,West,279,0.0,0.0,87,-99.99,,,-99.99,,2015-07-06 04:33:00,
2015-07-06 00:43:00,67.0,63.0,30.03,West,279,0.0,0.0,88,-99.99,,,-99.99,,2015-07-06 04:43:00,
2015-07-06 00:53:00,67.0,63.0,30.03,West,279,0.0,0.0,88,-99.99,,,-99.99,,2015-07-06 04:53:00,
2015-07-06 01:04:00,66.0,62.0,30.02,West,280,0.0,0.0,88,-99.99,,,-99.99,,2015-07-06 05:04:00,
2015-07-06 01:13:00,66.0,63.0,30.02,West,280,0.0,0.0,89,-99.99,,,-99.99,,2015-07-06 05:13:00,
2015-07-06 01:23:00,66.0,63.0,30.02,West,280,0.0,0.0,89,-99.99,,,-99.99,,2015-07-06 05:23:00,
2015-07-06 01:33:00,65.0,62.0,30.01,West,280,0.0,0.0,90,-99.99,,,-99.99,,2015-07-06 05:33:00,
2015-07-06 01:44:00,65.0,62.0,30.01,West,280,0.0,0.0,91,-99.99,,,-99.99,,2015-07-06 05:44:00,
2015-07-06 01:53:00,65.0,62.0,30.01,West,280,0.0,0.0,91,-99.99,,,-99.99,,2015-07-06 05:53:00,
2015-07-06 02:03:00,64.0,61.0,30.01,West,279,0.0,0.0,91,-99.99,,,-99.99,,2015-07-06 06:03:00,
2015-07-06 02:13:00,64.0,62.0,30.00,West,280,0.0,0.0,92,-99.99,,,-99.99,,2015-07-06 06:13:00,
2015-07-06 02:23:00,64.0,62.0,30.00,West,280,0.0,0.0,92,-99.99,,,-99.99,,2015-07-06 06:23:00,
2015-07-06 02:34:00,64.0,62.0,29.99,West,279,0.0,0.0,92,-99.99,,,-99.99,,2015-07-06 06:34:00,
2015-07-06 02:43:00,63.0,61.0,30.00,West,279,0.0,0.0,93,-99.99,,,-99.99,,2015-07-06 06:43:00,
2015-07-06 02:53:00,63.0,61.0,30.00,West,279,0.0,0.0,93,-99.99,,,-99.99,,2015-07-06 06:53:00,
2015-07-06 03:03:00,63.0,61.0,29.99,West,280,0.0,0.0,94,-99.99,,,-99.99,,2015-07-06 07:03:00,
2015-07-06 03:13:00,63.0,61.0,29.99,West,280,0.0,0.0,94,-99.99,,,-99.99,,2015-07-06 07:13:00,
2015-07-06 03:23:00,63.0,61.0,29.99,West,280,0.0,0.0,94,-99.99,,,-99.99,,2015-07-06 07:23:00,
2015-07-06 03:33:00,63.0,61.0,29.99,West,279,0.0,0.0,94,-99.99,,,-99.99,,2015-07-06 07:33:00,
2015-07-06 03:43:00,63.0,61.0,29.99,West,280,0.0,0.0,94,-99.99,,,-99.99,,2015-07-06 07:43:00,
2015-07-06 03:53:00,63.0,61.0,29.99,West,280,0.0,0.0,94,-99.99,,,-99.99,,2015-07-06 07:53:00,
2015-07-06 04:03:00,63.0,61.0,29.99,West,279,0.0,0.0,94,-99.99,,,-99.99,,2015-07-06 08:03:00,
2015-07-06 04:13:00,62.0,60.0,29.99,West,280,0.0,0.0,94,-99.99,,,-99.99,,2015-07-06 08:13:00,
2015-07-06 04:23:00,62.0,60.0,29.99,West,280,0.0,0.0,94,-99.99,,,-99.99,,2015-07-06 08:23:00,
2015-07-06 04:33:00,62.0,61.0,29.99,West,280,0.0,0.0,95,-99.99,,,-99.99,,2015-07-06 08:33:00,
2015-07-06 04:43:00,62.0,61.0,30.00,West,280,0.0,0.0,95,-99.99,,,-99.99,,2015-07-06 08:43:00,
2015-07-06 04:53:00,62.0,61.0,30.00,West,280,0.0,0.0,95,-99.99,,,-99.99,,2015-07-06 08:53:00,
2015-07-06 05:03:00,62.0,61.0,30.00,West,280,0.0,0.0,95,-99.99,,,-99.99,,2015-07-06 09:03:00,
2015-07-06 05:12:00,62.0,61.0,30.00,West,279,0.0,0.0,95,-99.99,,,-99.99,,2015-07-06 09:12:00,
2015-07-06 05:23:00,62.0,61.0,30.00,West,279,0.0,0.0,95,-99.99,,,-99.99,,2015-07-06 09:23:00,
2015-07-06 05:33:00,62.0,61.0,30.01,West,279,0.0,0.0,95,-99.99,,,-99.99,,2015-07-06 09:33:00,
2015-07-06 05:43:00,62.0,61.0,30.02,West,266,0.0,0.0,95,-99.99,,,-99.99,,2015-07-06 09:43:00,
2015-07-06 05:53:00,62.0,61.0,30.02,West,266,0.0,0.0,95,-99.99,,,-99.99,,2015-07-06 09:53:00,
2015-07-06 06:03:00,61.0,60.0,30.02,West,266,0.0,0.0,95,-99.99,,,-99.99,,2015-07-06 10:03:00,
2015-07-06 06:13:00,61.0,60.0,30.03,West,266,0.0,0.0,95,-99.99,,,-99.99,,2015-07-06 10:13:00,
2015-07-06 06:23:00,61.0,60.0,30.03,West,266,0.0,0.0,95,-99.99,,,-99.99,,2015-07-06 10:23:00,
2015-07-06 06:33:00,61.0,60.0,30.03,West,266,0.0,0.0,95,-99.99,,,-99.99,,2015-07-06 10:33:00,
2015-07-06 06:43:00,61.0,60.0,30.03,West,266,0.0,0.0,96,-99.99,,,-99.99,,2015-07-06 10:43:00,
2015-07-06 06:53:00,61.0,60.0,30.03,West,266,0.0,0.0,96,-99.99,,,-99.99,,2015-07-06 10:53:00,
2015-07-06 07:03:00,61.0,60.0,30.03,West,266,0.0,0.0,96,-99.99,,,-99.99,,2015-07-06 11:03:00,
2015-07-06 07:13:00,61.0,60.0,30.04,West,266,0.0,0.0,96,-99.99,,,-99.99,,2015-07-06 11:13:00,
2015-07-06 07:23:00,61.0,60.0,30.04,West,266,0.0,0.0,96,-99.99,,,-99.99,,2015-07-06 11:23:00,
2015-07-06 07:34:00,62.0,61.0,30.04,West,266,0.0,1.0,96,-99.99,,,-99.99,,2015-07-06 11:34:00,
2015-07-06 07:43:00,62.0,61.0,30.04,West,266,0.0,1.0,96,-99.99,,,-99.99,,2015-07-06 11:43:00,
2015-07-06 07:53:00,62.0,61.0,30.04,West,266,0.0,1.0,96,-99.99,,,-99.99,,2015-07-06 11:53:00,
2015-07-06 08:03:00,63.0,62.0,30.04,West,266,0.0,0.0,95,-99.99,,,-99.99,,2015-07-06 12:03:00,
2015-07-06 08:13:00,64.0,62.0,30.04,West,266,0.0,0.0,94,-99.99,,,-99.99,,2015-07-06 12:13:00,
2015-07-06 08:23:00,64.0,62.0,30.04,West,266,0.0,0.0,94,-99.99,,,-99.99,,2015-07-06 12:23:00,
2015-07-06 08:34:00,65.0,63.0,30.05,SE,144,0.0,1.0,92,-99.99,,,-99.99,,2015-07-06 12:34:00,
2015-07-06 08:44:00,66.0,63.0,30.04,SE,143,0.0,1.0,90,-99.99,,,-99.99,,2015-07-06 12:44:00,
2015-07-06 08:54:00,66.0,63.0,30.04,SE,143,0.0,1.0,90,-99.99,,,-99.99,,2015-07-06 12:54:00,
2015-07-06 09:03:00,67.0,64.0,30.04,SE,145,0.0,1.0,89,-99.99,,,-99.99,,2015-07-06 13:03:00,
2015-07-06 09:13:00,68.0,65.0,30.05,SSE,153,0.0,2.0,89,-99.99,,,-99.99,,2015-07-06 13:13:00,
2015-07-06 09:23:00,68.0,65.0,30.05,SSE,153,0.0,2.0,89,-99.99,,,-99.99,,2015-07-06 13:23:00,
2015-07-06 09:33:00,69.0,65.0,30.05,SSW,204,0.0,2.0,87,-99.99,,,-99.99,,2015-07-06 13:33:00,
2015-07-06 09:43:00,70.0,65.0,30.04,SE,142,0.0,2.0,85,-99.99,,,-99.99,,2015-07-06 13:43:00,
2015-07-06 09:54:00,70.0,65.0,30.04,SE,142,0.0,2.0,85,-99.99,,,-99.99,,2015-07-06 13:54:00,
2015-07-06 10:03:00,71.0,65.0,30.05,SE,129,1.0,2.0,82,-99.99,,,-99.99,,2015-07-06 14:03:00,
2015-07-06 10:12:00,71.0,65.0,30.05,SE,129,1.0,2.0,82,-99.99,,,-99.99,,2015-07-06 14:12:00,
2015-07-06 10:23:00,73.0,65.0,30.04,South,188,0.0,1.0,76,-99.99,,,-99.99,,2015-07-06 14:23:00,
2015-07-06 10:33:00,75.0,66.0,30.04,NNE,26,0.0,2.0,74,-99.99,,,-99.99,,2015-07-06 14:33:00,
2015-07-06 10:44:00,75.0,66.0,30.04,NNE,26,0.0,2.0,74,-99.99,,,-99.99,,2015-07-06 14:44:00,
2015-07-06 10:53:00,76.0,67.0,30.04,SE,141,0.0,3.0,74,-99.99,,,-99.99,,2015-07-06 14:53:00,
2015-07-06 11:03:00,76.0,66.0,30.04,SE,139,0.0,3.0,71,-99.99,,,-99.99,,2015-07-06 15:03:00,
2015-07-06 11:13:00,76.0,66.0,30.04,SE,139,0.0,3.0,71,-99.99,,,-99.99,,2015-07-06 15:13:00,
2015-07-06 11:23:00,77.0,66.0,30.04,NNW,342,0.0,5.0,69,-99.99,,,-99.99,,2015-07-06 15:23:00,
2015-07-06 11:33:00,77.0,66.0,30.04,NNW,342,0.0,5.0,69,-99.99,,,-99.99,,2015-07-06 15:33:00,
2015-07-06 11:44:00,77.0,64.0,30.04,SE,139,0.0,3.0,64,-99.99,,,-99.99,,2015-07-06 15:44:00,
2015-07-06 11:54:00,79.0,65.0,30.03,ENE,70,0.0,2.0,63,-99.99,,,-99.99,,2015-07-06 15:54:00,
2015-07-06 12:03:00,80.0,66.0,30.03,North,5,0.0,2.0,62,-99.99,,,-99.99,,2015-07-06 16:03:00,
2015-07-06 12:13:00,80.0,66.0,30.03,North,5,0.0,2.0,62,-99.99,,,-99.99,,2015-07-06 16:13:00,
2015-07-06 12:23:00,79.0,63.0,30.03,West,264,0.0,4.0,59,-99.99,,,-99.99,,2015-07-06 16:23:00,
2015-07-06 12:34:00,80.0,65.0,30.03,North,4,1.0,5.0,61,-99.99,,,-99.99,,2015-07-06 16:34:00,
2015-07-06 12:44:00,80.0,65.0,30.03,North,4,1.0,5.0,61,-99.99,,,-99.99,,2015-07-06 16:44:00,
2015-07-06 12:54:00,80.0,65.0,30.03,SW,225,0.0,4.0,61,-99.99,,,-99.99,,2015-07-06 16:54:00,
2015-07-06 13:04:00,81.0,67.0,30.03,North,5,0.0,3.0,62,-99.99,,,-99.99,,2015-07-06 17:04:00,
2015-07-06 13:14:00,81.0,67.0,30.03,North,5,0.0,-999.0,62,-99.99,,,-99.99,,2015-07-06 17:14:00,
2015-07-06 13:24:00,82.0,67.0,30.03,NNW,327,1.0,4.0,61,-99.99,,,-99.99,,2015-07-06 17:24:00,
2015-07-06 13:34:00,81.0,66.0,30.03,East,82,2.0,6.0,60,-99.99,,,-99.99,,2015-07-06 17:34:00,
2015-07-06 13:44:00,81.0,66.0,30.03,East,82,2.0,6.0,60,-99.99,,,-99.99,,2015-07-06 17:44:00,
2015-07-06 13:54:00,83.0,67.0,30.03,ESE,108,1.0,4.0,58,-99.99,,,-99.99,,2015-07-06 17:54:00,
2015-07-06 14:04:00,84.0,69.0,30.02,NNW,348,0.0,4.0,60,-99.99,,,-99.99,,2015-07-06 18:04:00,
2015-07-06 14:13:00,84.0,69.0,30.02,NNW,348,0.0,4.0,60,-99.99,,,-99.99,,2015-07-06 18:13:00,
2015-07-06 14:24:00,82.0,66.0,30.02,SE,127,1.0,6.0,59,-99.99,,,-99.99,,2015-07-06 18:24:00,
2015-07-06 14:34:00,83.0,67.0,30.02,NE,39,2.0,5.0,59,-99.99,,,-99.99,,2015-07-06 18:34:00,
2015-07-06 14:44:00,83.0,68.0,30.02,NNW,342,1.0,5.0,60,-99.99,,,-99.99,,2015-07-06 18:44:00,
2015-07-06 14:54:00,83.0,68.0,30.02,NNW,342,1.0,5.0,60,-99.99,,,-99.99,,2015-07-06 18:54:00,
2015-07-06 15:03:00,83.0,68.0,30.01,SE,127,0.0,6.0,60,-99.99,,,-99.99,,2015-07-06 19:03:00,
2015-07-06 15:13:00,83.0,68.0,30.01,SE,127,0.0,6.0,60,-99.99,,,-99.99,,2015-07-06 19:13:00,
2015-07-06 15:24:00,83.0,67.0,30.01,SE,126,2.0,6.0,58,-99.99,,,-99.99,,2015-07-06 19:24:00,
2015-07-06 15:44:00,83.0,68.0,30.01,NNE,21,1.0,4.0,61,-99.99,,,-99.99,,2015-07-06 19:44:00,
2015-07-06 15:54:00,84.0,69.0,30.00,ESE,113,0.0,4.0,61,-99.99,,,-99.99,,2015-07-06 19:54:00,
2015-07-06 16:04:00,84.0,69.0,29.99,North,8,1.0,4.0,61,-99.99,,,-99.99,,2015-07-06 20:04:00,
2015-07-06 16:13:00,84.0,69.0,29.99,North,8,1.0,4.0,61,-99.99,,,-99.99,,2015-07-06 20:13:00,
2015-07-06 16:23:00,85.0,68.0,29.98,NE,35,2.0,5.0,57,-99.99,,,-99.99,,2015-07-06 20:23:00,
2015-07-06 16:33:00,85.0,68.0,29.98,North,5,0.0,2.0,57,-99.99,,,-99.99,,2015-07-06 20:33:00,
2015-07-06 16:44:00,85.0,68.0,29.98,North,5,0.0,2.0,57,-99.99,,,-99.99,,2015-07-06 20:44:00,
2015-07-06 16:54:00,86.0,69.0,29.97,NE,40,0.0,3.0,58,-99.99,,,-99.99,,2015-07-06 20:54:00,
2015-07-06 17:03:00,87.0,69.0,29.96,SE,141,0.0,2.0,55,-99.99,,,-99.99,,2015-07-06 21:03:00,
2015-07-06 17:13:00,87.0,69.0,29.96,SE,141,0.0,2.0,55,-99.99,,,-99.99,,2015-07-06 21:13:00,
2015-07-06 17:23:00,86.0,68.0,29.96,ESE,104,0.0,5.0,55,-99.99,,,-99.99,,2015-07-06 21:23:00,
2015-07-06 17:33:00,87.0,69.0,29.96,NNE,23,0.0,3.0,55,-99.99,,,-99.99,,2015-07-06 21:33:00,
2015-07-06 17:44:00,87.0,69.0,29.96,NNE,23,0.0,3.0,55,-99.99,,,-99.99,,2015-07-06 21:44:00,
2015-07-06 17:55:00,86.0,67.0,29.95,SE,134,1.0,3.0,54,-99.99,,,-99.99,,2015-07-06 21:55:00,
2015-07-06 18:03:00,86.0,68.0,29.95,North,352,1.0,4.0,56,-99.99,,,-99.99,,2015-07-06 22:03:00,
2015-07-06 18:13:00,86.0,68.0,29.95,North,352,1.0,4.0,56,-99.99,,,-99.99,,2015-07-06 22:13:00,
2015-07-06 18:23:00,85.0,68.0,29.95,NE,46,1.0,4.0,56,-99.99,,,-99.99,,2015-07-06 22:23:00,
2015-07-06 18:34:00,86.0,68.0,29.94,West,264,0.0,4.0,55,-99.99,,,-99.99,,2015-07-06 22:34:00,
2015-07-06 18:43:00,86.0,68.0,29.94,West,264,0.0,4.0,55,-99.99,,,-99.99,,2015-07-06 22:43:00,